User: anonymous   Login
Location: Laterina
(43.5167°N, 11.7167°E)
Time: 02:01:38
(UTC+00:00)
Language:

Cosmos 2026 Rocket - Orbit

View from above orbital plane
View from above orbital plane
View from above satellite
View from above satellite

Ground track
Ground track

The orbit data is extracted from the following two-line orbital elements,

1 20046U 89042B   20334.61115528 +.00000004 +00000-0 -11443-4 0  9998
2 20046 082.9381 083.0601 0043093 130.3864 230.1068 13.78204136582793
Epoch (UTC): 29 November 2020 14:40:03
Eccentricity: 0.0043093
inclination: 82.9381°
perigee height: 938 km
apogee height: 1002 km
right ascension of ascending node: 83.0601°
argument of perigee: 130.3864°
revolutions per day: 13.78204136
mean anomaly at epoch: 230.1068°
orbit number at epoch: 58279

The dashed part of the orbit path shows where the satellite is in the earth's shadow,  

DLR